Wind_Speed
34 34 35 35 36 35 34 35 34 35 34 34 35 36 37 37 37 37 37 37 38 39 39 39 40 40 40 40 40 40 40 40 41 41 41 42 42 42 42 43 43 43 43
35 35 35 36 36 36 35 35 35 34 34 34 34 36 36 37 37 37 37 37 38 38 38 38 39 40 40 41 40 40 40 41 41 41 41 42 43 43 44 44 45 45 44
34 34 34 35 36 36 35 35 34 34 34 34 34 35 36 37 37 37 36 37 37 38 38 38 38 39 39 39 39 40 40 41 42 42 43 43 43 44 45 45 46 46 46
33 33 33 33 34 35 35 35 34 35 35 34 34 35 36 37 37 37 37 38 37 38 38 38 38 38 39 40 40 41 41 41 42 42 43 43 44 44 44 45 45 46 46
30 31 31 32 33 33 34 34 34 35 35 35 35 36 37 37 38 37 37 37 37 38 38 39 40 40 40 40 40 41 42 42 42 43 43 44 44 45 44 44 45 45 46
29 29 30 31 32 32 33 33 34 34 35 36 36 36 36 37 37 38 37 37 38 38 39 39 40 40 41 41 41 42 42 42 43 43 44 44 45 44 45 45 44 44 44
29 29 29 30 31 31 32 32 33 34 34 34 35 35 35 36 37 37 37 38 38 39 40 40 40 40 40 40 41 42 42 43 43 43 43 44 44 45 45 45 44 44 44
28 29 30 30 30 31 32 31 32 32 33 33 34 34 35 36 36 37 38 38 39 40 41 41 41 41 40 41 41 41 41 42 42 43 43 43 43 44 44 44 44 44 44
28 29 30 30 31 31 31 31 32 32 32 33 34 35 35 36 36 37 38 38 39 40 40 41 41 41 41 41 40 40 39 39 40 41 41 42 42 43 43 44 44 44 44
28 29 29 30 31 31 31 31 31 32 33 34 34 35 36 36 37 38 38 38 39 39 40 40 40 40 40 40 40 40 39 40 39 39 40 40 41 41 42 43 44 44 44
28 29 29 29 30 31 31 31 32 32 33 33 34 35 35 36 36 37 37 38 38 39 39 39 39 38 39 39 40 40 40 40 40 40 39 39 40 40 41 42 42 43 43
28 28 29 29 30 30 31 32 32 32 33 33 34 35 36 36 36 37 37 37 37 38 38 39 38 38 39 39 40 40 40 40 40 39 39 39 39 39 40 40 41 41 41
29 29 29 30 30 30 30 31 32 33 33 34 34 34 35 35 35 36 36 36 36 36 37 38 38 38 39 39 39 39 39 39 39 39 39 40 40 39 40 40 40 40 40
29 30 30 30 30 31 30 31 32 33 33 34 33 34 34 34 35 35 35 35 35 36 37 37 37 38 38 38 38 39 39 40 39 39 40 40 41 41 41 41 40 40 40
29 30 30 30 30 31 31 31 31 32 33 33 33 33 33 34 34 34 35 35 35 36 36 37 37 38 38 38 38 39 40 40 40 40 40 41 41 41 40 40 39 39 40
30 30 30 30 31 31 31 31 31 31 32 32 33 33 34 34 34 35 35 35 35 35 36 36 36 37 38 38 39 39 39 40 40 40 40 40 40 39 39 39 39 39 39
30 30 30 31 31 31 31 31 32 32 32 32 33 34 34 34 35 35 36 35 35 35 35 35 36 37 38 38 38 39 39 39 38 38 38 38 38 37 37 37 37 37 37
29 30 31 31 31 31 31 32 32 32 32 32 33 33 34 34 35 35 35 35 35 35 35 36 37 37 37 37 37 37 37 36 36 36 36 36 36 36 35 35 35 35 35
30 29 30 31 31 31 32 32 32 32 32 32 33 33 34 34 34 34 34 34 35 35 36 36 36 36 36 35 35 35 35 35 34 34 34 34 34 34 33 33 33 33 34
31 30 30 31 31 32 32 32 32 31 31 32 32 32 33 33 33 34 34 35 35 35 36 35 35 36 35 35 35 35 35 34 33 33 33 33 32 32 32 32 32 33 34
31 31 30 31 31 32 33 33 32 32 32 32 32 32 32 32 33 33 34 34 34 35 35 35 34 34 34 34 34 33 33 33 33 33 32 32 31 31 32 32 31 32 32
30 31 31 31 32 33 33 34 33 33 33 32 32 32 32 32 32 32 33 34 34 34 34 34 33 33 33 33 33 33 33 32 32 31 31 31 30 30 31 30 30 30 31
29 30 31 32 33 33 33 34 34 34 33 33 33 32 33 33 33 33 33 33 34 34 34 33 33 33 33 32 32 32 31 31 30 30 30 30 30 30 30 30 30 30 30
27 29 30 31 32 32 33 33 33 34 34 33 33 33 33 33 32 32 33 33 33 34 34 33 33 33 32 31 31 31 30 30 30 29 29 30 30 29 29 29 29 29 29
27 27 28 29 30 30 30 30 31 32 32 32 33 33 32 32 31 31 32 31 31 31 31 32 31 31 30 30 30 29 30 30 30 30 30 30 29 29 28 28 28 28 28
25 25 25 25 26 27 28 29 28 29 29 30 30 30 31 31 31 30 30 29 30 30 30 31 30 30 30 29 29 29 28 29 29 29 29 28 28 27 27 27 27 27 26
Wind_Direction
255 254 254 253 252 253 253 253 254 254 254 253 254 254 255 256 256 257 260 261 263 264 265 266 266 267 268 268 268 268 269 269 269 270 270 271 271 270 271 271 272 273 273
255 255 253 252 252 252 253 252 253 253 253 254 254 254 255 255 256 258 260 261 262 264 264 266 267 268 268 268 268 268 269 269 270 270 271 271 270 270 271 272 272 273 273
255 255 254 252 252 252 252 252 252 253 253 253 255 256 256 256 257 259 260 262 263 264 265 266 269 269 268 268 269 270 270 270 270 271 271 271 270 270 271 272 272 272 273
255 254 254 253 252 252 251 252 253 253 252 253 256 258 257 257 258 259 261 263 264 265 266 267 268 270 269 269 270 271 272 272 272 272 273 273 273 272 272 272 272 272 272
254 253 253 253 253 252 252 252 253 253 254 254 256 258 258 257 257 259 260 262 264 266 267 269 269 269 270 271 272 272 272 272 272 273 274 274 274 274 274 273 272 272 273
252 251 251 251 252 253 252 251 252 254 256 257 258 258 257 257 258 259 260 262 263 265 267 269 271 270 271 272 272 273 273 273 273 274 274 274 275 274 274 274 273 272 273
252 251 251 252 252 253 253 252 254 254 255 257 258 258 258 258 258 260 261 263 264 266 269 270 270 271 271 272 272 273 273 273 274 274 275 275 275 274 274 274 273 272 273
251 251 251 251 252 253 253 253 254 255 255 256 258 259 259 258 259 260 262 264 266 267 269 270 269 270 271 272 273 274 274 274 274 275 276 276 276 275 275 274 273 273 273
253 253 252 250 252 253 254 255 255 255 255 256 258 259 260 261 261 261 263 265 266 267 269 269 269 270 271 272 273 274 274 274 274 275 275 276 276 276 276 275 274 275 275
254 255 254 253 254 255 255 255 255 255 256 257 258 260 261 262 263 263 264 265 266 268 269 269 269 270 270 271 272 273 273 273 275 277 277 277 278 278 275 275 276 276 276
256 257 257 256 255 255 255 255 256 257 257 259 260 261 262 263 263 263 264 265 267 269 270 269 269 270 271 271 272 272 273 274 276 276 277 278 279 279 277 276 276 276 276
259 259 258 257 256 256 255 256 257 258 258 260 261 263 264 264 265 265 265 266 268 269 270 270 270 270 271 272 272 272 272 274 275 277 277 279 281 280 278 277 276 276 276
259 258 257 257 257 257 258 257 258 259 260 261 262 263 264 264 264 265 266 266 267 269 270 270 270 271 273 273 273 273 273 274 276 277 278 279 281 280 279 278 277 276 276
259 258 257 258 258 259 260 260 260 259 260 261 262 263 264 264 264 264 265 267 268 269 270 270 270 271 272 273 274 274 274 275 276 276 278 279 280 280 279 278 277 275 275
260 260 260 259 258 259 260 260 261 261 260 260 261 262 264 264 264 264 266 268 270 271 271 271 271 271 273 274 275 275 275 276 276 277 278 279 280 280 278 277 277 276 276
262 261 260 259 258 259 260 260 261 261 262 261 262 263 264 264 264 264 266 268 271 272 273 272 273 274 275 275 277 277 277 276 276 277 278 279 280 280 278 277 276 276 276
262 261 260 260 259 259 259 260 260 261 262 263 264 264 265 265 264 265 266 268 270 272 274 274 274 275 275 276 277 277 278 277 276 277 278 279 280 279 278 276 276 276 275
263 262 261 260 259 259 259 260 260 261 262 263 265 266 266 266 266 266 267 269 271 273 274 275 275 276 276 275 277 278 277 277 277 277 278 280 280 280 278 276 275 274 274
265 264 263 261 260 260 260 261 262 262 263 264 265 267 268 268 267 267 268 270 272 274 275 276 276 276 276 275 276 277 277 276 276 278 279 280 280 279 277 276 274 273 274
267 265 264 262 262 261 261 263 264 264 264 265 266 268 269 270 269 268 269 271 273 275 276 277 276 276 276 275 275 276 277 276 277 279 280 279 279 278 277 276 275 274 275
268 266 264 263 263 263 263 264 264 264 264 265 266 269 270 270 270 270 271 272 274 275 277 277 276 276 276 275 275 276 276 275 277 280 280 279 279 278 277 277 277 277 276
268 265 265 263 262 262 263 263 264 264 265 266 267 269 270 271 272 272 273 273 274 275 277 277 276 275 276 275 275 276 276 276 278 279 279 279 278 278 278 278 279 280 278
270 268 266 266 263 262 262 262 263 264 264 265 266 268 269 271 272 273 273 273 274 275 275 275 275 274 275 274 273 274 275 277 279 279 278 278 279 279 278 278 280 281 281
272 269 268 268 265 263 262 262 263 264 265 266 266 267 268 270 271 272 274 275 274 273 273 274 274 274 273 273 273 274 275 276 278 279 279 279 279 279 279 279 280 281 282
272 271 269 267 266 264 262 264 264 264 264 265 267 267 268 270 271 272 274 274 273 272 273 274 274 274 274 272 273 274 274 275 276 277 278 278 278 279 279 280 281 282 282
271 269 269 269 267 265 264 265 267 265 264 266 267 267 267 269 270 271 272 273 272 273 273 274 274 275 274 272 273 274 275 276 275 275 276 277 276 276 278 280 281 282 280
Height
5708 5708 5709 5711 5712 5714 5716 5717 5718 5720 5721 5723 5724 5725 5727 5729 5730 5732 5733 5734 5734 5735 5735 5736 5736 5735 5735 5735 5735 5734 5734 5733 5733 5732 5732 5731 5731 5730 5730 5730 5729 5729 5728
5698 5699 5700 5701 5703 5705 5707 5708 5709 5711 5713 5714 5715 5717 5718 5720 5722 5723 5724 5725 5725 5725 5726 5726 5726 5726 5726 5725 5725 5725 5724 5724 5723 5723 5722 5722 5721 5720 5720 5719 5719 5718 5718
5689 5690 5691 5693 5695 5697 5698 5700 5701 5702 5704 5705 5707 5708 5709 5711 5713 5714 5715 5716 5716 5716 5717 5717 5717 5717 5716 5716 5715 5715 5714 5714 5713 5712 5712 5711 5711 5710 5710 5709 5708 5707 5707
5680 5682 5683 5684 5686 5688 5690 5691 5693 5694 5695 5697 5698 5700 5701 5702 5704 5705 5706 5707 5707 5707 5707 5707 5707 5707 5707 5706 5705 5705 5704 5703 5703 5702 5701 5701 5700 5700 5699 5699 5698 5697 5696
5672 5674 5675 5676 5678 5679 5681 5682 5684 5686 5687 5688 5690 5691 5692 5693 5694 5696 5697 5697 5698 5698 5698 5698 5698 5697 5697 5696 5696 5695 5694 5693 5692 5692 5691 5690 5689 5688 5688 5688 5687 5686 5684
5664 5665 5667 5668 5669 5671 5672 5674 5675 5677 5679 5680 5681 5682 5683 5684 5685 5686 5687 5688 5688 5688 5688 5688 5688 5687 5687 5686 5686 5685 5684 5683 5682 5681 5680 5679 5678 5677 5676 5676 5676 5675 5673
5656 5657 5659 5660 5661 5663 5664 5665 5667 5668 5670 5671 5672 5672 5673 5675 5676 5677 5678 5678 5679 5679 5679 5678 5678 5677 5677 5676 5675 5674 5673 5672 5671 5670 5669 5668 5667 5666 5665 5664 5664 5663 5662
5647 5649 5651 5652 5653 5654 5656 5657 5658 5659 5661 5662 5663 5663 5664 5665 5666 5667 5668 5668 5669 5669 5668 5668 5667 5667 5666 5665 5665 5664 5663 5662 5661 5660 5658 5657 5656 5655 5653 5652 5652 5652 5651
5639 5641 5642 5643 5645 5646 5647 5649 5649 5651 5652 5652 5653 5654 5655 5656 5656 5657 5658 5658 5658 5658 5658 5657 5657 5656 5656 5655 5654 5654 5653 5651 5650 5649 5647 5646 5645 5643 5642 5641 5640 5640 5639
5631 5632 5633 5635 5636 5637 5639 5639 5640 5641 5642 5643 5644 5645 5645 5646 5646 5647 5648 5648 5648 5648 5647 5647 5646 5646 5645 5644 5643 5643 5642 5641 5639 5638 5637 5635 5634 5632 5630 5629 5628 5627 5626
5622 5624 5625 5626 5627 5628 5630 5631 5632 5632 5633 5634 5634 5635 5635 5636 5636 5637 5637 5637 5637 5637 5637 5636 5636 5635 5635 5634 5633 5632 5631 5630 5629 5627 5626 5624 5623 5621 5619 5617 5616 5615 5614
5614 5615 5616 5617 5618 5619 5620 5621 5622 5623 5624 5624 5625 5625 5625 5626 5626 5626 5626 5627 5627 5626 5626 5625 5625 5624 5624 5623 5622 5621 5620 5619 5618 5617 5615 5614 5612 5610 5608 5606 5605 5603 5602
5606 5607 5607 5608 5609 5610 5611 5612 5613 5613 5614 5614 5615 5615 5615 5616 5616 5616 5616 5616 5616 5616 5615 5614 5614 5613 5613 5612 5611 5610 5609 5608 5607 5606 5604 5603 5601 5599 5597 5595 5594 5592 5591
5597 5598 5598 5599 5600 5601 5602 5602 5603 5603 5604 5604 5605 5605 5606 5606 5606 5606 5606 5606 5606 5605 5604 5603 5603 5602 5602 5601 5600 5599 5598 5597 5596 5595 5593 5592 5590 5588 5586 5584 5583 5581 5580
5588 5589 5589 5590 5591 5592 5592 5593 5593 5594 5594 5595 5595 5595 5596 5596 5596 5596 5596 5596 5595 5595 5594 5593 5592 5591 5591 5590 5589 5588 5587 5586 5585 5583 5582 5580 5578 5576 5574 5573 5571 5570 5569
5579 5580 5580 5581 5582 5582 5583 5584 5584 5584 5585 5585 5586 5586 5586 5586 5586 5586 5586 5586 5585 5585 5584 5583 5582 5581 5580 5579 5578 5576 5575 5574 5573 5572 5570 5569 5566 5564 5563 5562 5561 5559 5558
5570 5570 5571 5572 5572 5573 5574 5574 5575 5575 5575 5576 5576 5576 5576 5576 5576 5576 5576 5576 5575 5575 5574 5573 5572 5571 5570 5568 5566 5565 5564 5563 5562 5561 5559 5557 5555 5553 5552 5551 5549 5548 5547
5560 5561 5562 5562 5563 5564 5564 5565 5565 5566 5566 5566 5566 5566 5566 5566 5566 5566 5566 5566 5565 5565 5564 5563 5561 5560 5559 5557 5555 5554 5553 5552 5551 5550 5548 5547 5545 5543 5541 5540 5539 5538 5537
5551 5551 5552 5552 5553 5553 5554 5555 5555 5556 5556 5556 5556 5556 5556 5556 5556 5556 5556 5556 5555 5554 5554 5552 5551 5550 5548 5547 5545 5544 5543 5542 5541 5539 5538 5536 5534 5533 5531 5530 5529 5528 5527
5541 5541 5542 5542 5543 5544 5544 5545 5546 5547 5547 5547 5547 5547 5546 5546 5546 5546 5546 5546 5545 5544 5543 5542 5541 5539 5538 5537 5535 5534 5533 5532 5531 5529 5528 5526 5524 5522 5520 5519 5518 5518 5517
5531 5531 5532 5533 5534 5534 5535 5536 5537 5537 5537 5537 5537 5537 5537 5537 5536 5536 5536 5535 5535 5534 5533 5532 5530 5529 5528 5526 5525 5524 5523 5522 5521 5519 5518 5516 5514 5512 5511 5509 5508 5507 5506
5521 5522 5522 5523 5523 5524 5525 5526 5527 5527 5527 5528 5528 5528 5528 5527 5527 5526 5526 5525 5524 5524 5522 5521 5520 5519 5518 5517 5516 5514 5513 5512 5511 5510 5508 5507 5505 5503 5502 5500 5499 5497 5496
5512 5512 5512 5513 5513 5514 5515 5516 5517 5517 5517 5518 5518 5518 5518 5518 5517 5517 5516 5515 5514 5513 5512 5511 5510 5509 5508 5507 5506 5505 5504 5503 5502 5500 5499 5497 5496 5494 5493 5491 5489 5488 5486
5503 5503 5503 5503 5503 5504 5504 5505 5506 5507 5508 5508 5508 5508 5508 5508 5507 5507 5506 5505 5504 5503 5502 5501 5500 5499 5499 5497 5496 5495 5494 5493 5492 5491 5489 5488 5486 5485 5484 5482 5481 5479 5477
5494 5494 5493 5493 5494 5494 5495 5495 5496 5497 5497 5498 5498 5498 5498 5498 5498 5497 5496 5495 5494 5493 5492 5491 5490 5489 5489 5488 5486 5485 5484 5483 5482 5481 5480 5479 5478 5477 5475 5474 5472 5471 5469
5486 5485 5485 5484 5484 5485 5485 5486 5486 5487 5487 5488 5488 5488 5488 5488 5488 5488 5487 5486 5485 5484 5483 5482 5481 5480 5479 5478 5477 5476 5475 5474 5473 5472 5471 5470 5469 5468 5467 5466 5465 5463 5462